Time,TemperatureF,DewpointF,PressureIn,WindDirection,WindDirectionDegrees,WindSpeedMPH,WindSpeedGustMPH,Humidity,HourlyPrecipIn,Conditions,Clouds,dailyrainin,SolarRadiationWatts/m^2,SoftwareType,DateUTC
2013-01-26 00:00:00,37.1,34.1,29.54,SSE,161,6.0,17.0,89,0.01,-RA,OVC,0.00,0.0,WeatherDisplay:10.37,2013-01-26 00:00:00,
2013-01-26 00:30:00,36.8,34.1,29.54,South,169,6.0,14.0,90,0.00,-RA,OVC,0.00,0.0,WeatherDisplay:10.37,2013-01-26 00:30:00,
2013-01-26 01:00:00,36.9,34.2,29.53,SSE,164,7.0,14.0,90,0.00,-RA,OVC,0.00,0.0,WeatherDisplay:10.37,2013-01-26 01:00:00,
2013-01-26 01:30:00,36.4,34.0,29.54,SSE,164,7.0,16.0,91,0.02,-RA,OVC,0.02,0.0,WeatherDisplay:10.37,2013-01-26 01:30:00,
2013-01-26 02:00:00,36.1,33.7,29.54,SSE,165,2.0,14.0,91,0.01,-RA,OVC,0.03,0.0,WeatherDisplay:10.37,2013-01-26 02:00:00,
2013-01-26 02:30:00,36.0,33.6,29.53,SSE,157,8.0,13.0,91,0.00,-RA,OVC,0.03,0.0,WeatherDisplay:10.37,2013-01-26 02:30:00,
2013-01-26 03:00:00,36.1,33.7,29.54,SSE,167,3.0,12.0,91,0.00,-RA,OVC,0.03,0.0,WeatherDisplay:10.37,2013-01-26 03:00:00,
2013-01-26 03:30:00,36.3,33.9,29.55,SSE,163,2.0,10.0,91,0.00,-RA,OVC,0.03,0.0,WeatherDisplay:10.37,2013-01-26 03:30:00,
2013-01-26 04:00:00,36.6,34.5,29.56,SSE,159,1.0,7.0,92,0.01,-RA,OVC,0.04,0.0,WeatherDisplay:10.37,2013-01-26 04:00:00,
2013-01-26 04:30:00,36.7,34.8,29.58,SSE,162,0.0,7.0,93,0.02,-RA,OVC,0.06,0.0,WeatherDisplay:10.37,2013-01-26 04:30:00,
2013-01-26 05:30:00,37.3,35.7,29.60,West,265,0.0,4.0,94,0.02,-RA,OVC,0.10,0.0,WeatherDisplay:10.37,2013-01-26 05:30:00,
2013-01-26 06:00:00,37.7,36.4,29.61,West,272,2.0,6.0,95,0.01,-RA,OVC,0.11,0.0,WeatherDisplay:10.37,2013-01-26 06:00:00,
2013-01-26 06:30:00,38.3,37.0,29.63,WNW,285,2.0,9.0,95,0.00,-RA,OVC,0.11,0.0,WeatherDisplay:10.37,2013-01-26 06:30:00,
2013-01-26 07:01:00,38.1,36.8,29.64,WNW,283,1.0,6.0,95,0.00,-RA,OVC,0.11,0.0,WeatherDisplay:10.37,2013-01-26 07:01:00,
2013-01-26 07:30:00,37.6,36.1,29.66,NW,319,2.0,8.0,94,0.00,-RA,OVC,0.11,0.0,WeatherDisplay:10.37,2013-01-26 07:30:00,
2013-01-26 08:00:00,37.2,35.6,29.68,NW,313,2.0,6.0,94,0.01,-RA,OVC,0.12,7.0,WeatherDisplay:10.37,2013-01-26 08:00:00,
2013-01-26 08:30:00,37.3,35.7,29.72,WNW,288,0.0,6.0,94,0.00,-RA,OVC,0.12,46.0,WeatherDisplay:10.37,2013-01-26 08:30:00,
2013-01-26 09:00:00,37.9,36.3,29.73,WNW,288,0.0,4.0,94,0.00,-RA,OVC,0.12,97.0,WeatherDisplay:10.37,2013-01-26 09:00:00,
2013-01-26 09:30:00,38.7,36.8,29.74,WNW,288,0.0,4.0,93,0.00,-RA,OVC,0.12,118.0,WeatherDisplay:10.37,2013-01-26 09:30:00,
2013-01-26 10:00:00,39.9,38.0,29.76,West,272,3.0,7.0,93,0.00,-RA,OVC,0.12,171.0,WeatherDisplay:10.37,2013-01-26 10:00:00,
2013-01-26 10:30:00,41.1,38.7,29.77,WNW,294,2.0,9.0,91,0.00,-RA,OVC,0.12,213.0,WeatherDisplay:10.37,2013-01-26 10:30:00,
2013-01-26 11:00:00,42.0,38.4,29.77,WNW,285,3.0,12.0,87,0.00,-RA,OVC,0.12,234.0,WeatherDisplay:10.37,2013-01-26 11:00:00,
2013-01-26 11:30:00,43.1,38.0,29.77,WNW,283,5.0,15.0,82,0.00,-RA,OVC,0.12,294.0,WeatherDisplay:10.37,2013-01-26 11:30:00,
2013-01-26 12:00:00,44.2,38.4,29.78,WNW,289,3.0,12.0,80,0.00,-RA,OVC,0.12,309.0,WeatherDisplay:10.37,2013-01-26 12:00:00,
2013-01-26 12:30:00,45.5,38.3,29.78,West,276,7.0,12.0,76,0.00,-RA,OVC,0.12,288.0,WeatherDisplay:10.37,2013-01-26 12:30:00,
2013-01-26 13:00:00,46.0,38.5,29.78,West,280,6.0,12.0,75,0.00,-RA,OVC,0.12,181.0,WeatherDisplay:10.37,2013-01-26 13:00:00,
2013-01-26 13:31:00,46.2,37.6,29.78,West,275,2.0,15.0,72,0.00,-RA,OVC,0.12,141.0,WeatherDisplay:10.37,2013-01-26 13:31:00,
2013-01-26 14:00:00,46.3,38.2,29.78,West,281,2.0,14.0,73,0.00,-RA,OVC,0.12,142.0,WeatherDisplay:10.37,2013-01-26 14:00:00,
2013-01-26 14:30:00,45.9,38.4,29.78,WSW,250,2.0,13.0,75,0.00,-RA,OVC,0.12,90.0,WeatherDisplay:10.37,2013-01-26 14:30:00,
2013-01-26 15:01:00,45.6,38.4,29.79,West,266,5.0,12.0,76,0.00,-RA,OVC,0.12,62.0,WeatherDisplay:10.37,2013-01-26 15:01:00,
2013-01-26 15:31:00,45.6,39.2,29.78,SW,231,1.0,12.0,78,0.00,-RA,OVC,0.12,62.0,WeatherDisplay:10.37,2013-01-26 15:31:00,
2013-01-26 16:01:00,45.9,39.4,29.77,SW,229,0.0,7.0,78,0.00,-RA,OVC,0.12,19.0,WeatherDisplay:10.37,2013-01-26 16:01:00,
2013-01-26 16:31:00,45.6,39.1,29.77,SW,233,3.0,9.0,78,0.00,-RA,OVC,0.12,7.0,WeatherDisplay:10.37,2013-01-26 16:31:00,
2013-01-26 17:01:00,44.8,38.6,29.76,SW,235,2.0,10.0,79,0.00,-RA,OVC,0.12,0.0,WeatherDisplay:10.37,2013-01-26 17:01:00,
2013-01-26 17:31:00,44.2,38.7,29.75,SW,235,1.0,12.0,81,0.00,-RA,OVC,0.12,0.0,WeatherDisplay:10.37,2013-01-26 17:31:00,
2013-01-26 18:01:00,44.5,39.7,29.74,SW,228,5.0,12.0,83,0.00,-RA,OVC,0.12,0.0,WeatherDisplay:10.37,2013-01-26 18:01:00,
2013-01-26 18:31:00,44.6,40.1,29.72,SW,230,3.0,10.0,84,0.00,-RA,OVC,0.12,0.0,WeatherDisplay:10.37,2013-01-26 18:31:00,
2013-01-26 19:01:00,45.0,40.7,29.71,SW,230,3.0,12.0,85,0.00,-RA,OVC,0.12,0.0,WeatherDisplay:10.37,2013-01-26 19:01:00,
2013-01-26 19:31:00,44.9,40.9,29.69,SW,219,1.0,9.0,86,0.00,-RA,OVC,0.12,0.0,WeatherDisplay:10.37,2013-01-26 19:31:00,
2013-01-26 20:01:00,45.6,41.9,29.68,SW,228,7.0,18.0,87,0.00,-RA,OVC,0.12,0.0,WeatherDisplay:10.37,2013-01-26 20:01:00,
2013-01-26 20:31:00,46.2,42.5,29.67,SW,222,3.0,16.0,87,0.00,-RA,OVC,0.12,0.0,WeatherDisplay:10.37,2013-01-26 20:31:00,
2013-01-26 21:01:00,46.1,43.0,29.65,SW,219,3.0,17.0,89,0.01,-RA,OVC,0.13,0.0,WeatherDisplay:10.37,2013-01-26 21:01:00,
2013-01-26 21:31:00,45.9,42.8,29.62,SSW,208,3.0,16.0,89,0.02,-RA,OVC,0.15,0.0,WeatherDisplay:10.37,2013-01-26 21:31:00,
2013-01-26 22:01:00,45.6,42.2,29.60,SW,228,3.0,16.0,88,0.00,-RA,OVC,0.15,0.0,WeatherDisplay:10.37,2013-01-26 22:01:00,
2013-01-26 22:31:00,45.4,42.0,29.58,SW,224,3.0,14.0,88,0.02,-RA,OVC,0.17,0.0,WeatherDisplay:10.37,2013-01-26 22:31:00,
2013-01-26 23:01:00,45.4,42.0,29.57,SW,233,5.0,18.0,88,0.00,-RA,OVC,0.17,0.0,WeatherDisplay:10.37,2013-01-26 23:01:00,
2013-01-26 23:31:00,45.6,42.0,29.54,SW,223,3.0,14.0,87,0.00,-RA,OVC,0.17,0.0,WeatherDisplay:10.37,2013-01-26 23:31:00,